Regional Weather Roundup
Issued by NWS

Home | Current Version | Previous Version | Text Only | Print | Product List | Glossary Off
Versions: 1 2 3 4 5 6 7 8 9 10 11 12 13 14 15 16 17 18 19 20 21 22 23 24 25 26 27 28 29 30 31 32 33 34 35 36 37 38 39 40 41 42 43 44 45 46 47 48 49 50

000
ASUS45 KBOU 291007
RWRCO

WEATHER ROUNDUP FOR COLORADO
NATIONAL WEATHER SERVICE DENVER/BOULDER CO
400 AM MDT TUE JUL 29 2014

NOTE: "FAIR" INDICATES FEW OR NO CLOUDS BELOW 12000 FEET WITH NO
SIGNIFICANT WEATHER AND/OR OBSTRUCTIONS TO VISIBILITY.

COZ001>005-013-030-031-291100-
...NORTHWEST COLORADO...

CITY           SKY/WX    TMP DP  RH WIND       PRES   REMARKS
CRAIG          CLOUDY    53  53 100 S3        30.32F
HAYDEN         CLOUDY    63  48  59 CALM      30.34S
MEEKER         CLOUDY    61  53  75 CALM      30.35F
MOUNT WERNER   NOT AVBL
STEAMBOAT SPGS CLOUDY    58  50  72 CALM      30.36S
WALDEN         MOCLDY    50  43  76 SE3       30.43F
$$

COZ006>008-011-291100-
...WEST CENTRAL VALLEYS...

CITY           SKY/WX    TMP DP  RH WIND       PRES   REMARKS
GRAND JUNCTION LGT RAIN  62  62 100 E6        30.28F
MONTROSE       LGT RAIN  62  59  90 CALM      30.37S
EAGLE          CLOUDY    57  52  82 E5        30.38S
RIFLE          CLOUDY    63  58  83 W12       30.32R
DELTA          CLOUDY    65  62  89 CALM      30.32F
NUCLA          RAIN      59  59 100 CALM      30.41S
$$

COZ017>023-064>068-291100-
...SOUTHWEST COLORADO...

CITY           SKY/WX    TMP DP  RH WIND       PRES   REMARKS
DURANGO        CLOUDY    59  54  83 E3        30.37F
CORTEZ         CLOUDY    62  60  93 N3        30.33F
PAGOSA SPRINGS CLOUDY    61  52  73 CALM      30.44S
TELLURIDE      DRIZZLE   52  52 100 CALM      30.53F
WOLF CREEK PAS NOT AVBL
$$

COZ009-010-012-014-032>034-037-058>063-291100-
...CENTRAL COLORADO...

CITY           SKY/WX    TMP DP  RH WIND       PRES   REMARKS
ASPEN          CLOUDY    54  52  93 S5        30.42F
BUENA VISTA    MOCLDY    53  51  94 NW3       30.44F
COPPER MTN     CLOUDY    52  39  62 S10       30.69F
BERTHOUD PASS  FAIR      43  30  61 SE10      30.74F
COTTONWOOD PAS MOCLDY    52  48  87 CALM      30.56S
GUNNISON       MOCLDY    55  52  88 CALM      30.47F
KREMMLING      CLOUDY    54  45  71 CALM      30.41F
LEADVILLE      CLOUDY    47  45  93 NE6       30.55F
MONARCH PASS   CLOUDY    43  41  93 W21       30.77F
SALIDA         MOCLDY    56  52  88 CALM      30.48F
SUNLIGHT       CLOUDY    50  46  87 CALM      30.63S
WILKERSON PASS MOCLDY    45  41  87 S9        30.67F
$$

COZ069>075-291100-
...SAN LUIS VALLEY/SANGRE DE CRISTO MOUNTAINS...

CITY           SKY/WX    TMP DP  RH WIND       PRES   REMARKS
ALAMOSA        PTCLDY    53  52  96 CALM      30.43F
LA VETA PASS   CLOUDY    46  46 100 SW8G21    30.56S FOG
SAGUACHE       PTCLDY    54  52  94 N7        30.45F
$$

COZ035-036-038>040-291100-
...NORTHERN COLORADO FRONT RANGE...

CITY           SKY/WX    TMP DP  RH WIND       PRES   REMARKS
DENVER INTL AP MOCLDY    62  55  77 W7        30.24F
DMNS CITY PARK   N/A     64  55  72 SE2       30.24F
AURORA         MOCLDY    62  56  83 SW5       30.27F
FRONT RANGE AP NOT AVBL
ERIE MUNI ARPT MOCLDY    60  57  89 CALM      30.24S
BOULDER MUN AP MOCLDY    64  57  77 CALM      30.24
CENTENNIAL     MOCLDY    61  52  72 W5        30.27F
BROOMFIELD     MOCLDY    64  55  72 N6        30.26F
FORT COLLINS   PTCLDY    63  55  77 N3        30.24F
LONGMONT       PTCLDY    65  57  77 CALM      30.25S
$$

COZ041-046-047-076>085-087-088-291100-
...PIKES PEAK/PALMER DIVIDE AND SOUTHERN FOOTHILLS...

CITY           SKY/WX    TMP DP  RH WIND       PRES   REMARKS
COLO. SPRINGS  PTCLDY    60  57  89 N5        30.32F
A. F. ACADEMY  MOCLDY    53  52  97 N6        30.33F
ELLICOTT       PTCLDY    59  57  94 E5        30.30F FOG
FALCON         PTCLDY    57  56  96 N3        30.36F
FORT CARSON    PTCLDY    59  57  93 N6        30.29F
LIMON          PTCLDY    56  55  97 S3        30.27F
MONUMENT HILL  MOCLDY    52  46  82 SW6       30.35F
TRINIDAD       PTCLDY    63  56  78 CALM      30.28F
$$

COZ042>045-048>051-090-091-291100-
...NORTHEAST COLORADO...

CITY           SKY/WX    TMP DP  RH WIND       PRES   REMARKS
GREELEY ARPT   PTCLDY    61  52  72 N3        30.22F
AKRON          PTCLDY    64  58  80 S9        30.22F
BURLINGTON     PTCLDY    59  57  93 S7        30.22F
WRAY             N/A     65  58  77 SW3       30.19F
STERLING       PTCLDY    63  61  94 CALM      30.19S
HOLYOKE        CLEAR     59  55  88 SE5       30.20F
FORT MORGAN    PTCLDY    61  56  83 CALM      30.22S
$$

COZ086-089-092>099-291100-
...SOUTHEAST COLORADO...

CITY           SKY/WX    TMP DP  RH WIND       PRES   REMARKS
PUEBLO         PTCLDY    64  62  93 N5        30.21F
LA JUNTA       PTCLDY    67  64  90 CALM      30.19F
LAMAR          MOCLDY    68  64  87 S12       30.16F
SPRINGFIELD      N/A     63  61  93 S15       30.23F
$$


USA.gov is the U.S. government's official web portal to all federal, state and local government web resources and services.